Indianapolis, IN

10:48 AM EST on November 21, 2019 (GMT -0500)
Indianapolis International

Weather History for KIND - September, 2019

Change the Weather History Date:

Monday, September 23, 2019

  Actual Average Record
Temperature  
Mean Temperature 69 °F 64 °F  
Max Temperature 78 °F 75 °F 94 °F (2010)
Min Temperature 59 °F 53 °F 34 °F (1974)
Degree Days  
Heating Degree Days 0 4  
Month to date heating degree days 0 35  
Since 1 July heating degree days 0 39  
Cooling Degree Days 4 3  
Month to date cooling degree days 213 115  
Year to date cooling degree days 1252 1036  
Growing Degree Days 20 (Base 50)    
Moisture  
Dew Point 62 °F    
Average Humidity 69    
Maximum Humidity 100    
Minimum Humidity 38    
Precipitation  
Precipitation 0.27 in 0.11 in 2.11 in (1955)
Month to date precipitation 0.40 2.38  
Year to date precipitation 36.95 31.71  
Snow  
Snow 0.00 in 0.00 in 0.00 in ()
Month to date snowfall 0.0 0.0  
Since 1 July snowfall 0.0 0.0  
Since 1 September snowfall 0.0 0.0  
Snow Depth 0.00 in    
Sea Level Pressure  
Sea Level Pressure 29.97 in    
Wind  
Wind Speed 11 mph (West)    
Max Wind Speed 20 mph    
Max Gust Speed 25 mph    
Visibility 9 miles    
Events Rain    
T = Trace of Precipitation, MM = Missing Value Source: NWS Daily Summary

Daily Weather History Graph

Daily Weather History Graph

Search for Another Location

Airport or City:

Astronomy

Sep. 23, 2019 Rise Set
Actual Time 7:33 AM EDT 7:40 PM EDT
Civil Twilight 7:06 AM EDT 8:07 PM EDT
Nautical Twilight 6:35 AM EDT 8:39 PM EDT
Astronomical Twilight 6:03 AM EDT 9:11 PM EDT
Moon 1:17 AM EDT (9/23) 4:32 PM EDT (9/23)
Length of Visible Light 13h 01m
Length of Day
12h 07m
Waning Crescent, 33% of the Moon is Illuminated
Sep 23
Waning Crescent
Sep 28
New
Oct 5
First Quarter
Oct 13
Full
Oct 21
Last Quarter

Hourly Weather History & Observations

Time (EDT) Temp. Dew Point Humidity Pressure Visibility Wind Dir Wind Speed Gust Speed Precip Events Conditions
12:42 AM 70.0 °F 69.1 °F 97% 29.97 in 4.0 mi SW 11.5 mph - 0.06 in Rain Rain
12:54 AM 70.0 °F 69.1 °F 97% 29.94 in 5.0 mi SW 13.8 mph - 0.10 in Rain Rain
12:56 AM 70.0 °F 69.1 °F 97% 29.96 in 5.0 mi SW 15.0 mph - 0.00 in Rain Rain
1:42 AM 70.0 °F 69.1 °F 97% 29.94 in 10.0 mi SSW 8.1 mph - 0.03 in   Overcast
1:54 AM 70.0 °F 69.1 °F 97% 29.92 in 10.0 mi SSW 9.2 mph - 0.03 in   Mostly Cloudy
2:54 AM 70.0 °F 69.1 °F 97% 29.91 in 10.0 mi SW 10.4 mph - 0.01 in Rain Light Rain
3:54 AM 69.1 °F 68.0 °F 96% 29.90 in 3.0 mi SW 11.5 mph - 0.06 in Rain Light Rain
4:01 AM 69.1 °F 68.0 °F 96% 29.92 in 4.0 mi WSW 9.2 mph - 0.04 in Rain Light Rain
4:15 AM 69.1 °F 68.0 °F 96% 29.92 in 10.0 mi WSW 10.4 mph - 0.04 in   Overcast
4:54 AM 69.1 °F 68.0 °F 96% 29.90 in 10.0 mi SW 12.7 mph - 0.04 in   Overcast
5:27 AM 69.1 °F 68.0 °F 96% 29.92 in 10.0 mi SW 12.7 mph - 0.01 in Rain Light Rain
5:54 AM 70.0 °F 68.0 °F 93% 29.90 in 10.0 mi SW 12.7 mph - 0.03 in   Overcast
6:54 AM 70.0 °F 69.1 °F 97% 29.92 in 4.0 mi West 9.2 mph - 0.02 in Rain Rain
7:34 AM 70.0 °F 69.1 °F 97% 29.95 in 7.0 mi West 8.1 mph - 0.09 in   Mostly Cloudy
7:45 AM 70.0 °F 69.1 °F 97% 29.95 in 10.0 mi West 8.1 mph - 0.09 in   Mostly Cloudy
7:52 AM 69.8 °F 69.8 °F 100% 29.95 in 10.0 mi WNW 11.5 mph - 0.09 in   Mostly Cloudy
7:54 AM 70.0 °F 69.1 °F 97% 29.94 in 10.0 mi WNW 13.8 mph - 0.09 in   Mostly Cloudy
8:13 AM 69.1 °F 66.9 °F 93% 29.96 in 10.0 mi WNW 11.5 mph - N/A   Mostly Cloudy
8:43 AM 69.1 °F 66.9 °F 93% 29.97 in 10.0 mi NW 10.4 mph - N/A   Mostly Cloudy
8:54 AM 69.1 °F 66.9 °F 93% 29.96 in 10.0 mi NW 8.1 mph - N/A   Mostly Cloudy
9:54 AM 70.0 °F 64.9 °F 84% 29.97 in 10.0 mi WNW 10.4 mph - N/A   Mostly Cloudy
10:19 AM 72.0 °F 64.9 °F 78% 30.00 in 10.0 mi WNW 10.4 mph - N/A   Partly Cloudy
10:34 AM 72.0 °F 64.0 °F 76% 30.00 in 10.0 mi WNW 13.8 mph - N/A   Mostly Cloudy
10:51 AM 73.4 °F 62.6 °F 69% 30.00 in 10.0 mi WNW 12.7 mph - N/A   Mostly Cloudy
10:54 AM 72.0 °F 63.0 °F 73% 29.99 in 10.0 mi WNW 12.7 mph - N/A   Mostly Cloudy
11:46 AM 73.0 °F 62.1 °F 68% 30.01 in 10.0 mi WNW 12.7 mph 20.7 mph N/A   Mostly Cloudy
11:54 AM 75.0 °F 61.0 °F 62% 30.00 in 10.0 mi WNW 12.7 mph - N/A   Mostly Cloudy
12:54 PM 75.0 °F 60.1 °F 60% 30.01 in 10.0 mi NW 17.3 mph 21.9 mph N/A   Mostly Cloudy
1:54 PM 75.9 °F 57.9 °F 54% 30.01 in 10.0 mi NW 13.8 mph 21.9 mph N/A   Scattered Clouds
2:54 PM 77.0 °F 55.9 °F 48% 30.00 in 10.0 mi West 15.0 mph 20.7 mph N/A   Scattered Clouds
3:54 PM 73.0 °F 55.0 °F 53% 30.01 in 10.0 mi NW 13.8 mph - N/A   Scattered Clouds
4:54 PM 75.9 °F 48.0 °F 37% 30.01 in 10.0 mi NW 13.8 mph - N/A   Partly Cloudy
5:54 PM 75.0 °F 48.9 °F 40% 30.01 in 10.0 mi NW 12.7 mph - N/A   Partly Cloudy
6:54 PM 73.0 °F 48.9 °F 42% 30.02 in 10.0 mi WNW 11.5 mph - N/A   Clear
7:54 PM 66.9 °F 48.9 °F 52% 30.01 in 10.0 mi NW 6.9 mph - N/A   Clear
8:54 PM 64.9 °F 50.0 °F 58% 30.02 in 10.0 mi NW 5.8 mph - N/A   Clear
9:54 PM 63.0 °F 51.1 °F 65% 30.04 in 10.0 mi NW 3.5 mph - N/A   Clear
10:54 PM 62.1 °F 52.0 °F 70% 30.04 in 10.0 mi NNW 6.9 mph - N/A   Clear
11:54 PM 60.1 °F 52.0 °F 75% 30.04 in 10.0 mi NNW 5.8 mph - N/A   Clear